[[{"header":{"parameterUnit":"m.s-1","parameterCategory":1,"la1":30.2991,"la2":30.254,"lo1":-89.0895,"lo2":-89.0444,"dy":0.0017,"dx":0.0017,"nx":28,"ny":28,"refTime":"2024-07-12T21:00:00:Z","depth":0,"parameterNumber":2,"parameterNumberName":"U-component_of_WINDS"},"data":[0,0,0,0,0,0,0,0,0,0,0,0,0,0,0,0,0,0,0,0,0,0,0,0,0,0,0,0,0,0,0,0,0,0,0,0,0,0,0,0,0,0,0,0,0,0,0,0,0,0,0,0,0,0,0,0,0,0,1.4042,1.4043,0,1.4157,1.4158,1.4159,1.4177,1.4176,1.4175,1.4174,1.429,1.4294,1.4298,0,0,0,0,0,0,0,0,0,0,0,0,0,1.3838,1.3841,1.4042,1.4044,1.4045,1.4156,1.4158,1.416,1.4177,1.4176,1.4175,1.4174,1.4289,1.4294,1.4299,0,0,0,0,0,0,0,0,0,0,0,0,0,1.3937,1.3842,1.4042,1.4067,1.4071,1.4156,1.4158,1.416,1.4178,1.4176,1.4175,1.4173,1.4288,1.4293,1.4299,1.4367,0,0,1.4318,1.4321,0,0,0,0,0,0,0,0,1.3931,1.3944,1.4062,1.4066,1.407,1.4151,1.4128,1.4229,1.4178,1.4137,1.4174,1.4172,1.4245,1.4255,1.4279,1.4372,1.4377,1.4318,1.4322,1.4325,1.4326,0,0,0,0,0,0,0,1.3924,1.3939,1.4087,1.4064,1.4069,1.4073,1.4085,1.4148,1.4198,1.414,1.4142,1.4155,1.4247,1.4274,1.4282,1.4379,1.4318,1.4324,1.4327,1.433,1.4532,1.4534,0,0,0,0,0,0,1.3913,1.3933,1.4084,1.4091,1.3995,1.4077,1.4091,1.4126,1.4198,1.4207,1.4157,1.4156,1.4264,1.4275,1.4286,1.4369,1.4325,1.433,1.4334,1.453,1.4532,1.4534,0,0,0,0,0,0,1.3908,1.3926,1.4079,1.4013,1.4032,1.4083,1.4122,1.413,1.4156,1.421,1.4219,1.4174,1.4263,1.4278,1.4347,1.4373,1.4333,1.4339,1.4528,1.4531,1.4533,1.4536,0,0,0,0,0,0,1.3902,1.3924,1.3951,1.4013,1.4036,1.4138,1.4124,1.4133,1.4167,1.4167,1.4229,1.4238,1.4263,1.4337,1.4353,1.4381,1.4343,1.4526,1.4529,1.4532,1.4533,1.4538,1.4542,0,0,0,0,0,1.3895,1.3947,1.3952,1.397,1.407,1.4139,1.4152,1.4181,1.4169,1.4195,1.423,1.4236,1.4368,1.4344,1.4362,1.4392,1.4524,1.4528,1.4532,1.4531,1.4537,1.4542,0,0,0,0,0,0,1.3886,1.3956,1.3962,1.4036,1.4082,1.4142,1.4177,1.4186,1.4236,1.4234,1.4267,1.4281,1.4347,1.4377,1.4349,1.4461,1.4445,1.4453,1.4439,1.4445,1.4449,1.444,1.4348,0,0,0,0,0,1.3893,1.3944,1.4002,1.4061,1.4084,1.4126,1.4158,1.4175,1.4224,1.4243,1.4283,1.4329,1.4381,1.4415,1.4466,1.4538,1.4551,1.4568,1.4572,1.4575,1.4581,1.462,1.4628,1.4547,1.4547,1.4547,0,0,1.3908,1.3952,1.3982,1.4061,1.4098,1.4149,1.4142,1.4197,1.4235,1.4252,1.4318,1.4349,1.4403,1.4473,1.4506,1.45,1.4606,1.458,1.4582,1.4586,1.4625,1.4632,1.4639,1.455,1.4549,1.4549,0,0,1.396,1.3999,1.4052,1.409,1.4146,1.4174,1.4187,1.4246,1.4267,1.4335,1.4348,1.4394,1.4483,1.4521,1.4551,1.4617,1.4624,1.4633,1.4655,1.4692,1.4699,1.4705,1.4727,1.4734,1.4638,1.4639,1.4639,0,1.397,1.4048,1.4078,1.4132,1.4166,1.4183,1.4237,1.4272,1.4342,1.4365,1.4357,1.4469,1.4507,1.4585,1.4601,1.4626,1.4641,1.4625,1.4696,1.4702,1.4707,1.4729,1.4737,1.4639,1.4639,1.4639,1.4639,0,1.4057,1.4111,1.4147,1.4215,1.4253,1.4306,1.4344,1.4379,1.4393,1.4421,1.449,1.4536,1.4596,1.4616,1.4631,1.4697,1.4691,1.4689,1.4674,1.4715,1.4736,1.4744,1.464,1.464,1.464,1.4639,0,0,1.4106,1.419,1.4202,1.4233,1.4297,1.4339,1.4393,1.4451,1.448,1.4528,1.4573,1.4648,1.4647,1.4681,1.4701,1.4734,1.4781,1.4728,1.473,1.4735,1.4855,1.4855,1.4864,1.4787,1.4789,1.479,1.485,0,1.4165,1.4262,1.429,1.4371,1.4421,1.4438,1.4485,1.4529,1.4557,1.4602,1.4633,1.4685,1.468,1.4701,1.4735,1.4768,1.4806,1.4765,1.4828,1.483,1.4813,1.4875,1.4876,1.4931,1.4859,1.486,1.4861,0,1.4246,1.4295,1.4381,1.4438,1.446,1.4501,1.4557,1.4601,1.465,1.4668,1.4707,1.4723,1.478,1.4762,1.4839,1.4811,1.4839,1.4859,1.4862,1.4868,1.4847,1.4882,1.4949,1.4956,1.4874,1.4873,1.4872,0,1.4271,1.4359,1.4422,1.4448,1.4516,1.4544,1.4574,1.4622,1.4656,1.4704,1.4726,1.4781,1.481,1.4852,1.4882,1.4867,1.4956,1.4942,1.4972,1.4971,1.4989,1.4987,1.506,1.5009,1.5009,1.5008,1.5008,0,1.4332,1.4384,1.4434,1.4472,1.453,1.4562,1.4619,1.4649,1.4692,1.4736,1.4755,1.4796,1.4834,1.4879,1.4904,1.4963,1.4977,1.4992,1.4998,1.499,1.4988,1.5007,1.5004,1.5011,1.501,1.501,1.5009,0,1.437,1.4406,1.4475,1.4534,1.455,1.459,1.464,1.4677,1.4706,1.4762,1.4776,1.4821,1.4876,1.4911,1.4981,1.4997,1.5061,1.5067,1.5044,1.5047,1.5074,1.5071,1.5162,1.5175,1.5116,1.5117,1.5117,0,1.4406,1.4446,1.4509,1.454,1.457,1.462,1.4654,1.4687,1.4721,1.4781,1.4811,1.4867,1.4913,1.5,1.5038,1.5091,1.5097,1.5125,1.5105,1.5095,1.5096,1.5092,1.5096,1.5128,1.5128,1.5129,1.5129,0,1.4466,1.4481,1.453,1.4584,1.4624,1.4669,1.4713,1.4737,1.4778,1.4816,1.4872,1.4908,1.4979,1.5034,1.509,1.512,1.5131,1.5135,1.5145,1.5137,1.5121,1.5129,1.5052,1.5133,1.5132,1.5132,1.5132,1.5132,1.4503,1.4539,1.4589,1.4642,1.4679,1.472,1.4757,1.4791,1.4838,1.4899,1.4916,1.4974,1.5022,1.5099,1.513,1.5176,1.5172,1.5186,1.519,1.5192,1.5192,1.5115,1.5187,1.5187,1.5187,1.5187,1.5187,0,1.4562,1.4595,1.4644,1.4705,1.4747,1.4754,1.4803,1.4837,1.4889,1.4933,1.4978,1.5042,1.5095,1.5138,1.5193,1.5221,1.5228,1.5234,1.5232,1.5238,1.5193,1.5179,1.5228,1.5228,1.5228,1.5228,1.5228,1.5228,1.4598,1.4659,1.468,1.4759,1.4792,1.4849,1.4877,1.4914,1.495,1.502,1.5065,1.5092,1.5136,1.5194,1.5243,1.5254,1.5273,1.5278,1.529,1.5246,1.5242,1.5237,1.5224,1.5282,1.5282,1.5332,1.5332,1.5332]},{"header":{"parameterUnit":"m.s-1","parameterCategory":1,"la1":30.2991,"la2":30.254,"lo1":-89.0895,"lo2":-89.0444,"dy":0.0017,"dx":0.0017,"nx":28,"ny":28,"refTime":"2024-07-12T21:00:00:Z","depth":0,"parameterNumber":3,"parameterNumberName":"V-component_of_WINDS"},"data":[0,0,0,0,0,0,0,0,0,0,0,0,0,0,0,0,0,0,0,0,0,0,0,0,0,0,0,0,0,0,0,0,0,0,0,0,0,0,0,0,0,0,0,0,0,0,0,0,0,0,0,0,0,0,0,0,0,0,3.9852,3.9851,0,3.982,3.982,3.982,3.9729,3.9727,3.9725,3.9723,3.9693,3.9694,3.9695,0,0,0,0,0,0,0,0,0,0,0,0,0,3.9834,3.9835,3.9852,3.9851,3.9851,3.982,3.982,3.982,3.9729,3.9727,3.9725,3.9722,3.9692,3.9694,3.9695,0,0,0,0,0,0,0,0,0,0,0,0,0,3.9826,3.9835,3.9852,3.9802,3.9797,3.982,3.982,3.9819,3.973,3.9727,3.9724,3.9721,3.9692,3.9693,3.9695,3.9764,0,0,3.97,3.97,0,0,0,0,0,0,0,0,3.9827,3.9827,3.981,3.9806,3.98,3.9775,3.9802,3.9801,3.9731,3.9756,3.9723,3.972,3.9723,3.9722,3.9722,3.9763,3.9761,3.97,3.9701,3.9702,3.9702,0,0,0,0,0,0,0,3.9827,3.9828,3.9839,3.981,3.9804,3.9782,3.9777,3.9802,3.9756,3.9753,3.9746,3.9744,3.972,3.9721,3.9721,3.9761,3.97,3.9701,3.9702,3.9703,3.9855,3.9858,0,0,0,0,0,0,3.9835,3.9829,3.984,3.9838,3.9806,3.9784,3.9779,3.9786,3.9756,3.9748,3.9747,3.974,3.972,3.9719,3.972,3.9797,3.9701,3.9703,3.9704,3.9852,3.9856,3.9859,0,0,0,0,0,0,3.9835,3.9837,3.9841,3.9832,3.9831,3.9788,3.9796,3.9787,3.9789,3.9751,3.9742,3.9756,3.9717,3.9717,3.9753,3.9795,3.9704,3.9705,3.9848,3.9853,3.9857,3.9954,0,0,0,0,0,0,3.9835,3.9837,3.9863,3.9833,3.9832,3.9876,3.9799,3.9789,3.9791,3.9782,3.9758,3.9751,3.9715,3.9751,3.9755,3.9795,3.9706,3.9844,3.985,3.9856,3.9947,3.9961,3.9974,0,0,0,0,0,3.9834,3.9892,3.9865,3.9867,3.9863,3.9878,3.9878,3.9835,3.9795,3.9821,3.9796,3.9751,3.979,3.9756,3.9759,3.9801,3.9841,3.9849,3.9855,3.9941,3.9959,3.9974,0,0,0,0,0,0,3.9929,3.9887,3.9857,3.9906,3.9896,3.9863,3.9894,3.9855,3.9857,3.9849,3.9796,3.9792,3.9835,3.9821,3.9784,3.9865,3.9808,3.9816,3.9872,3.9889,3.9902,3.9904,3.9708,0,0,0,0,0,3.9956,3.9971,3.9934,3.9982,3.9978,3.9937,3.9943,3.9911,3.9899,3.9894,3.9872,3.9863,3.9872,3.988,3.9887,3.9945,3.9938,3.9975,3.9988,4.0,4.0007,4.0035,4.0051,3.9882,3.9882,3.9882,0,0,4.0011,3.999,4.0003,4.0,3.9989,4.0006,3.9934,3.9956,3.9969,3.9898,3.9929,3.9914,3.9899,3.9946,3.9966,3.9936,4.0052,4.0009,4.0018,4.0019,4.0044,4.006,4.0075,3.9887,3.9886,3.9885,0,0,4.012,4.0106,4.0143,4.0133,4.0117,4.0089,4.0098,4.007,4.0056,4.0088,4.0034,4.0049,4.0067,4.0058,4.0057,4.0162,4.0121,4.0166,4.0236,4.0264,4.0278,4.0289,4.0326,4.034,4.0174,4.0174,4.0174,0,4.0191,4.0215,4.0168,4.0193,4.0192,4.0128,4.0165,4.0158,4.0145,4.0147,4.0114,4.0134,4.012,4.0164,4.0189,4.0191,4.0199,4.0168,4.028,4.0291,4.0301,4.0335,4.0349,4.0179,4.0179,4.0178,4.0178,0,4.0302,4.0319,4.0351,4.0339,4.0343,4.0374,4.0332,4.0341,4.0309,4.0285,4.0317,4.0298,4.03,4.0308,4.0277,4.0347,4.0329,4.0289,4.023,4.0323,4.0354,4.0367,4.0187,4.0185,4.0184,4.0182,0,0,4.047,4.043,4.0443,4.0436,4.0413,4.0426,4.0454,4.0454,4.0463,4.0457,4.0478,4.0495,4.0457,4.0455,4.0423,4.0448,4.0531,4.0404,4.0403,4.0428,4.0606,4.0636,4.0652,4.0504,4.0507,4.0508,4.0607,0,4.0572,4.0617,4.0575,4.0628,4.0643,4.0582,4.0607,4.0595,4.0573,4.0583,4.0559,4.0571,4.0521,4.0519,4.0541,4.0517,4.0566,4.0509,4.0524,4.0525,4.0528,4.0668,4.07,4.0794,4.0619,4.0621,4.0623,0,4.0697,4.0695,4.075,4.0721,4.0726,4.0749,4.0745,4.0756,4.0742,4.0724,4.0721,4.0682,4.0707,4.0651,4.0685,4.0647,4.0651,4.064,4.0642,4.0641,4.0579,4.067,4.0823,4.0837,4.0642,4.064,4.0639,0,4.0813,4.0824,4.0857,4.0853,4.0822,4.0839,4.0827,4.081,4.0812,4.081,4.0811,4.0812,4.0812,4.0814,4.0776,4.0738,4.0815,4.0755,4.08,4.0801,4.0818,4.0818,4.0973,4.0823,4.0822,4.0822,4.0822,0,4.0931,4.0966,4.0908,4.0929,4.0967,4.0919,4.0958,4.0939,4.0924,4.094,4.0888,4.0904,4.0853,4.0864,4.0834,4.0866,4.0867,4.0853,4.0845,4.0858,4.0859,4.0859,4.0851,4.0826,4.0825,4.0824,4.0824,0,4.1066,4.1029,4.1061,4.1028,4.1021,4.105,4.1022,4.104,4.1014,4.1035,4.1038,4.0998,4.1008,4.097,4.0974,4.0953,4.1001,4.0982,4.1006,4.1,4.1046,4.1042,4.1206,4.1225,4.1064,4.1065,4.1067,0,4.1143,4.1169,4.1139,4.1145,4.1135,4.1147,4.1149,4.1103,4.1107,4.1092,4.1112,4.1117,4.1119,4.1138,4.111,4.1112,4.1092,4.115,4.1093,4.1104,4.1092,4.1091,4.1093,4.1161,4.1163,4.1165,4.1166,0,4.1284,4.1264,4.1269,4.1267,4.1271,4.1268,4.1261,4.1269,4.1219,4.1227,4.1236,4.1238,4.1241,4.1247,4.1243,4.1231,4.1191,4.1185,4.1195,4.1208,4.122,4.1213,4.1037,4.1181,4.1179,4.1178,4.1178,4.1177,4.1392,4.1411,4.1392,4.1399,4.1389,4.1384,4.1398,4.1374,4.1381,4.1379,4.1352,4.1366,4.135,4.1341,4.1333,4.1344,4.1317,4.1332,4.1336,4.134,4.1348,4.1219,4.1343,4.1343,4.1342,4.1342,4.1341,0,4.1529,4.1513,4.152,4.1512,4.1517,4.1478,4.1468,4.1475,4.1488,4.1477,4.1479,4.149,4.1495,4.1467,4.1468,4.1482,4.1464,4.1484,4.1482,4.148,4.1372,4.1362,4.1499,4.1499,4.1499,4.1499,4.1499,4.1499,4.1601,4.1631,4.1609,4.1634,4.1618,4.1631,4.1629,4.1623,4.1614,4.1627,4.1631,4.1612,4.1594,4.1594,4.1597,4.1588,4.1591,4.1618,4.1603,4.1503,4.1488,4.1473,4.1464,4.1619,4.1619,4.171,4.1711,4.1711]}]]